Probability
0 0 1 2 3 5 6 6 6 6 6 6 7 7 6 4 3 3 3 3 3 3 3 4 4 3 1 0 0 0 0 0 0 0 0 0 0 0 0 0 0 0 0
0 0 1 2 2 4 6 6 6 6 6 6 7 6 5 4 3 2 2 3 3 3 3 3 4 3 1 0 0 0 1 1 1 0 0 0 0 0 0 0 0 0 0
0 0 0 1 2 4 5 6 6 6 6 6 6 6 5 4 3 1 1 2 3 3 3 4 3 3 1 0 1 1 2 2 2 1 0 0 0 0 0 0 0 0 0
0 0 0 1 3 4 4 5 6 6 6 6 6 6 4 3 2 2 1 1 2 3 4 5 4 3 2 2 2 3 3 3 2 1 0 0 0 0 0 0 0 0 1
0 0 0 2 5 5 4 4 5 4 5 6 6 5 3 2 2 2 3 2 3 3 5 5 4 3 3 3 3 3 3 3 1 0 0 0 0 0 0 0 0 1 2
0 0 0 1 3 5 5 4 3 3 4 5 4 4 3 2 2 2 2 3 3 4 5 4 3 3 3 3 3 3 3 2 1 0 0 0 0 0 0 0 0 1 2
0 0 0 1 2 3 4 3 2 2 2 2 2 3 3 3 3 2 2 2 4 5 6 4 3 3 3 3 3 3 2 1 0 0 0 0 0 0 0 0 0 1 1
0 1 1 2 2 2 1 2 2 1 1 0 1 2 3 3 3 3 3 3 3 5 6 4 3 3 3 3 3 2 1 0 0 0 0 0 0 0 0 0 0 0 0
1 1 2 3 3 2 1 1 1 1 1 0 1 2 3 3 3 3 3 3 3 4 4 4 3 3 3 3 3 1 0 0 0 0 0 0 0 0 0 0 0 0 0
1 1 2 4 5 4 2 1 0 0 0 0 1 2 3 3 3 3 2 3 3 3 3 3 3 3 3 3 2 1 0 0 0 0 0 0 0 0 0 0 0 0 0
1 2 3 3 4 5 4 2 1 1 1 1 1 1 2 3 3 2 1 2 2 2 1 1 3 3 3 3 1 0 0 0 0 0 0 0 0 0 0 0 0 0 0
2 3 3 4 4 4 4 3 3 4 3 3 3 3 3 3 4 3 1 1 1 1 0 1 2 2 2 2 1 0 0 0 0 0 0 0 0 0 0 0 0 0 0
2 3 4 4 4 3 3 4 5 5 5 6 6 5 4 4 4 3 1 0 0 0 0 0 1 1 1 1 0 0 0 0 0 0 0 0 0 0 0 0 0 0 0
1 2 3 3 3 3 2 3 3 3 4 5 6 6 6 5 4 2 1 1 1 1 1 1 0 0 0 0 0 0 0 0 0 0 0 0 0 0 0 0 0 0 0
0 1 1 1 2 1 1 1 1 1 3 4 4 5 6 6 4 2 1 1 2 2 2 2 1 0 0 0 0 0 0 0 0 0 0 0 0 0 0 0 0 0 0
1 0 0 0 0 1 1 1 1 1 2 3 3 4 4 4 4 2 2 2 3 3 3 3 2 0 0 0 0 0 0 0 0 0 0 0 0 0 0 0 0 0 0
2 1 1 0 0 0 1 1 2 2 3 3 3 3 2 2 2 2 3 3 3 2 2 2 1 0 0 0 0 0 0 0 0 0 0 0 0 0 0 0 0 0 0
3 3 2 1 0 0 0 1 2 3 4 4 4 3 1 0 1 2 3 3 2 1 1 1 0 0 0 0 0 0 0 0 0 0 0 0 0 0 0 0 0 0 0
2 3 3 2 1 1 0 1 3 3 3 4 4 2 1 0 0 1 2 1 1 0 0 0 0 0 0 0 0 0 0 0 0 0 0 0 0 0 0 0 0 0 0
1 1 3 3 3 2 2 2 3 3 2 3 3 1 0 0 0 1 1 0 0 0 0 0 0 0 0 0 0 0 0 0 0 0 0 0 0 0 0 0 0 0 0
0 1 2 3 3 3 3 3 3 3 3 2 1 0 0 0 0 0 0 0 1 0 0 0 0 0 0 0 0 0 0 0 0 0 0 0 0 0 0 0 0 0 0
0 0 1 2 3 3 3 3 3 3 3 2 1 0 0 0 0 0 0 0 0 0 0 0 0 0 0 0 0 0 0 0 0 0 0 0 0 0 0 0 0 0 0
0 0 0 1 3 3 3 3 3 3 3 2 0 0 0 0 0 0 0 0 0 0 0 0 0 0 0 0 0 0 0 0 0 0 0 0 0 0 0 0 0 0 0
0 0 0 1 2 3 3 3 3 3 3 2 1 0 0 0 0 0 0 0 0 0 0 0 0 0 0 0 0 0 0 0 0 0 0 0 0 0 0 0 0 0 0
0 0 0 0 1 2 3 3 3 3 3 3 2 1 0 0 0 0 0 0 0 0 0 0 0 0 0 0 0 0 0 0 0 0 0 0 0 0 0 0 0 0 0
0 0 0 0 0 1 3 3 3 3 3 3 2 1 0 0 0 0 0 0 0 0 0 0 0 0 0 0 0 0 0 0 0 0 0 0 0 0 0 0 0 0 0
Wind_Speed
3 3 2 2 5 6 6 7 7 7 7 7 7 7 7 7 7 7 7 8 8 8 8 9 9 10 10 10 10 10 11 11 10 10 10 10 10 10 10 9 8 8 10
4 4 2 2 5 6 6 6 6 6 6 6 6 6 6 6 7 7 7 7 8 8 9 9 9 9 9 10 10 10 10 10 10 9 8 8 9 9 9 9 9 7 10
4 5 5 3 4 5 6 6 6 6 6 6 6 6 6 6 6 6 6 7 7 8 9 9 9 10 10 10 10 10 10 10 9 7 5 6 7 8 8 9 9 9 9
4 4 4 3 5 5 6 6 6 6 6 6 5 6 6 6 6 6 6 7 7 8 9 9 9 10 10 10 10 10 10 10 8 4 5 6 6 8 8 8 9 9 9
3 4 4 3 4 5 5 6 5 5 5 5 5 6 6 6 5 5 6 7 7 8 9 9 9 9 10 9 9 9 9 8 5 5 6 6 5 7 8 8 8 8 8
3 3 5 3 4 4 5 5 5 5 5 5 5 5 5 5 5 5 6 6 7 8 8 9 9 9 9 9 8 8 8 6 4 5 6 6 5 7 7 7 7 7 7
3 3 5 3 3 4 4 4 4 5 5 5 5 4 5 5 5 5 5 6 7 7 8 8 8 9 8 8 8 8 7 5 4 5 5 5 6 7 6 6 6 6 6
3 3 4 4 3 3 3 3 4 4 4 5 5 4 4 4 5 5 6 6 7 7 8 8 8 9 8 8 8 8 6 4 4 5 4 4 6 6 6 6 7 6 5
2 3 3 4 4 3 3 3 3 4 4 5 5 4 5 5 5 5 5 6 7 7 8 8 8 8 8 8 8 8 6 4 3 3 4 3 5 6 6 6 6 6 6
2 2 2 2 3 4 4 3 3 3 4 5 5 5 5 5 5 5 5 6 6 7 8 8 7 8 8 8 8 7 5 2 3 3 3 4 5 5 5 5 5 5 5
2 2 2 2 2 3 3 3 3 3 4 4 4 5 4 4 4 4 5 6 7 7 8 8 7 8 7 7 7 5 2 2 3 3 3 4 4 4 4 4 5 5 5
3 3 3 3 3 3 2 3 3 3 3 3 3 4 3 3 3 3 6 6 7 7 7 7 6 6 4 3 4 3 2 3 2 3 3 5 3 3 3 4 4 4 4
3 3 3 3 3 3 2 2 1 1 2 3 3 3 3 3 3 3 2 3 4 4 3 4 3 2 3 2 2 2 2 2 2 2 4 5 4 4 4 4 4 4 4
3 3 2 3 3 3 3 2 2 2 2 2 3 3 3 2 3 2 2 2 2 1 2 2 2 3 3 3 2 2 2 1 2 2 3 6 5 4 4 4 3 3 4
4 3 3 3 4 3 3 2 2 2 2 3 3 3 4 3 3 2 2 1 1 1 2 2 2 3 3 3 3 2 2 2 2 2 2 5 5 5 4 4 4 4 3
4 4 3 3 3 4 3 3 3 2 2 3 3 3 4 3 3 3 3 2 1 1 1 2 2 2 2 2 3 2 2 2 2 2 2 3 5 5 5 4 4 4 4
4 3 3 3 3 4 4 4 3 2 3 3 3 3 4 3 3 3 2 2 2 2 2 2 2 2 2 2 2 2 2 2 1 2 2 2 2 4 5 5 5 4 4
3 3 2 2 3 3 4 4 3 3 3 3 3 3 3 3 3 3 3 2 2 2 2 2 2 2 2 2 1 1 1 1 1 1 1 2 2 2 3 6 6 5 5
2 2 2 2 3 3 3 3 3 3 3 3 2 2 3 3 3 3 2 2 3 2 2 2 2 2 2 2 1 1 1 1 1 1 1 2 2 2 2 4 6 6 6
1 1 1 2 2 2 2 2 2 3 3 3 2 2 3 3 4 3 2 3 3 2 2 2 2 2 2 2 1 1 1 0 0 1 1 1 1 2 2 2 2 3 5
1 0 0 1 2 2 2 2 2 3 3 3 2 3 3 3 4 4 3 3 3 3 3 3 3 3 2 2 2 1 0 0 0 0 1 1 1 1 2 2 2 2 2
1 1 1 1 0 1 1 2 2 2 2 2 2 3 3 3 3 3 4 3 3 3 3 3 3 2 2 2 2 2 2 2 2 1 1 1 1 1 1 2 2 2 3
2 2 1 1 1 1 1 2 2 2 2 2 2 2 2 2 3 3 3 3 3 3 3 4 4 4 3 3 1 2 2 2 1 2 2 2 2 2 2 2 2 3 2
2 1 1 1 0 0 1 2 3 3 2 2 1 2 2 2 2 3 3 3 3 3 3 4 4 3 4 4 2 2 2 1 2 2 2 2 2 3 3 2 3 3 3
1 1 1 0 0 0 1 2 3 2 1 1 2 3 2 2 2 2 3 3 3 3 3 4 4 4 3 4 3 2 2 2 3 3 3 3 3 3 3 3 3 3 3
2 1 1 0 0 0 1 1 2 2 2 2 2 2 2 1 1 1 2 3 3 3 4 4 4 4 4 4 3 3 3 3 3 3 4 4 4 3 3 3 3 3 3
Wind_Direction
162 163 150 178 144 131 120 114 109 109 110 109 107 105 108 108 107 106 107 110 108 104 99 96 91 89 88 86 82 78 77 75 74 73 75 75 74 75 72 66 67 76 71
156 161 141 156 138 132 125 121 117 116 117 116 113 111 109 109 110 109 111 113 111 106 101 95 93 92 91 88 84 80 79 75 71 69 74 82 78 75 73 66 62 72 72
150 155 155 147 137 132 132 129 125 123 123 123 120 118 113 108 109 114 115 117 116 111 105 99 93 92 91 89 85 82 79 76 71 66 75 83 84 78 76 73 71 74 73
152 155 156 136 139 134 136 137 135 134 131 130 127 123 117 111 107 111 119 120 119 115 109 102 97 95 94 91 87 85 81 76 67 62 76 72 79 80 76 76 73 72 73
152 155 137 127 138 139 140 143 141 141 138 134 133 129 124 119 115 108 118 126 123 117 112 105 100 98 95 93 91 87 83 78 69 75 77 73 74 79 76 75 74 71 70
156 156 140 129 132 137 141 146 146 148 146 140 137 132 129 124 120 114 114 124 123 117 112 106 104 100 97 96 96 92 85 76 84 78 75 72 71 75 72 74 73 70 68
157 157 148 126 131 134 140 148 148 148 151 146 137 131 130 124 116 111 112 116 117 116 112 108 105 100 94 92 92 88 77 59 72 74 70 71 68 68 69 68 69 70 67
155 154 151 128 118 128 133 139 147 145 140 139 134 127 122 120 111 105 106 113 113 114 113 108 104 101 97 92 86 80 70 57 77 77 73 72 62 64 68 66 63 64 69
143 152 155 160 153 131 113 119 127 126 124 121 120 117 107 101 101 98 99 111 112 110 110 107 105 102 97 91 83 75 64 43 69 70 66 64 61 61 63 62 59 59 61
146 159 167 171 171 171 163 130 120 117 117 113 106 102 102 103 101 95 99 101 109 109 106 103 102 102 96 90 83 76 67 60 69 70 64 62 55 57 60 62 58 59 61
161 172 179 181 182 182 175 148 142 126 115 118 114 105 121 137 131 118 97 91 99 103 103 105 103 99 97 93 83 76 79 66 62 59 61 51 49 52 62 64 63 62 62
193 191 185 187 188 186 174 165 163 159 150 152 147 145 146 136 117 104 89 83 86 90 96 92 97 110 114 112 102 101 83 68 60 55 52 43 45 52 64 67 66 64 60
216 207 195 192 189 184 174 172 160 158 155 157 155 149 140 131 124 121 118 110 106 106 109 106 115 121 111 100 98 88 71 63 55 53 50 37 38 51 57 63 69 63 65
220 220 221 207 191 188 181 174 166 164 161 156 153 155 149 142 139 135 128 128 129 124 122 119 111 99 100 97 90 77 64 52 54 48 52 35 29 38 49 60 69 61 63
230 228 223 218 202 190 187 184 174 179 173 161 154 157 156 151 147 140 140 143 137 136 138 128 119 110 100 89 84 82 77 63 51 41 48 39 26 31 40 45 51 54 51
234 230 225 215 208 194 190 185 178 183 177 165 157 155 161 158 155 154 151 152 143 144 142 135 129 120 109 98 91 82 78 72 53 33 27 43 33 31 33 35 41 37 33
241 235 227 219 205 197 193 189 181 187 182 166 158 156 158 157 157 156 153 154 150 149 145 133 125 122 112 103 94 81 69 54 47 33 20 11 22 36 28 29 36 27 19
251 234 224 213 205 196 196 191 188 188 181 171 162 155 155 155 158 157 156 158 151 150 151 144 144 137 127 119 108 92 72 51 31 42 39 21 9 11 27 26 26 21 12
254 233 220 212 208 194 193 190 189 185 178 173 163 158 156 158 159 158 159 156 154 151 154 153 153 153 145 138 115 94 73 45 3 38 47 30 19 12 13 22 18 15 10
259 241 212 204 203 188 176 183 187 178 175 173 167 162 160 159 160 162 158 160 158 153 154 158 154 153 154 142 126 106 60 32 335 18 7 17 20 18 9 358 0 5 2
299 285 239 191 188 177 169 181 192 181 172 168 164 166 170 163 161 167 164 163 161 165 167 164 157 155 147 155 157 152 145 156 232 293 308 309 358 1 354 347 339 337 339
276 270 251 247 225 189 194 186 198 175 174 165 159 163 171 172 168 172 175 168 169 170 170 167 163 168 161 180 195 196 213 213 206 244 261 285 297 310 314 324 327 330 330
286 281 276 295 270 204 178 176 165 165 157 162 164 167 168 172 170 173 179 171 175 176 179 182 181 180 181 185 215 229 225 233 244 208 228 248 274 288 294 302 305 311 311
278 290 284 272 285 205 179 182 175 174 169 169 167 158 157 160 168 177 178 174 178 183 187 189 193 194 192 194 196 252 280 278 244 236 214 229 259 272 275 278 282 291 297
305 301 291 254 143 196 195 179 168 175 172 158 152 142 139 144 167 177 182 182 184 188 192 192 195 197 202 209 205 201 214 231 246 251 254 245 251 252 265 270 273 280 288
334 325 319 256 226 190 179 172 165 169 170 158 163 156 156 158 159 172 183 187 191 194 198 199 199 200 203 210 214 212 213 217 222 238 255 262 264 257 259 265 268 276 279